User: anonymous   Login
Location: Unspecified
(0.0000°N, 0.0000°E)
Time: 23:13:24
(UTC+00:00)
Language:

TISAT 1 - Orbit

View from above orbital plane
View from above orbital plane
View from above satellite
View from above satellite

Ground track
Ground track

The orbit data is extracted from the following two-line orbital elements,

1 36799U 10035E   23083.86095033  .00010718  00000-0  97671-3 0  9993
2 36799  98.1493 310.1937 0009904 252.0557 107.9583 14.95293423689820
Epoch (UTC): 24 March 2023 20:39:46
Eccentricity: 0.0009904
inclination: 98.1493°
perigee height: 574 km
apogee height: 588 km
right ascension of ascending node: 310.1937°
argument of perigee: 252.0557°
revolutions per day: 14.95293423
mean anomaly at epoch: 107.9583°
orbit number at epoch: 68982

The dashed part of the orbit path shows where the satellite is in the earth's shadow,  

DLR